FW2983 Weather Reports


Display with metric or nautical units.
time (UTC)temp
F
wind
direction
speed
MPH
gust
MPH
rain 1hr
in
rain 24hr
in
rain mn
in
humidity
%
barometer
mb
20260505224008 59 0 0.0 0.0 0.00 0.00 0.00 61 1012.5
20260505214008 64 0 0.0 0.0 0.00 0.00 0.00 45 1012.9
20260505211004 63 0 0.0 0.0 0.00 0.00 0.00 47 1012.9
20260505204041 61 0 0.0 0.0 0.00 0.00 0.00 50 1013.5
20260505201035 60 0 0.0 0.0 0.00 0.00 0.00 54 1013.2
20260505194010 59 0 0.0 0.0 0.00 0.00 0.00 57 1013.9
20260505181035 63 0 0.0 0.0 0.00 0.00 0.00 45 1013.5
20260505171004 57 0 0.0 0.0 0.00 0.00 0.00 52 1013.9
20260505161004 54 0 0.0 0.0 0.00 0.00 0.00 58 1014.2
20260505151007 54 0 0.0 0.0 0.00 0.00 0.00 58 1014.6
20260505124010 58 0 0.0 0.0 0.00 0.00 0.00 40 1013.9
20260505114008 58 0 0.0 0.0 0.00 0.00 0.00 34 1013.5
20260505091003 61 0 0.0 0.0 0.00 0.00 0.00 31 1013.9
20260505074008 63 0 0.0 0.0 0.00 0.00 0.00 29 1014.2
20260505064009 64 0 0.0 0.0 0.00 0.00 0.00 25 1013.9
20260505061003 65 0 0.0 0.0 0.00 0.00 0.00 25 1013.9
20260505054010 65 0 0.0 0.0 0.00 0.00 0.00 25 1013.9
20260505041034 67 0 0.0 0.0 0.00 0.00 0.00 24 1013.5
20260505034008 68 0 0.0 0.0 0.00 0.00 0.00 23 1013.5
20260505031003 68 0 0.0 0.0 0.00 0.00 0.00 22 1013.2
20260505024008 70 0 0.0 0.0 0.00 0.00 0.00 21 1012.9
20260505021004 70 0 0.0 0.0 0.00 0.00 0.00 21 1012.5
20260505014008 71 0 0.0 0.0 0.00 0.00 0.00 21 1012.2
20260505011007 71 0 0.0 0.0 0.00 0.00 0.00 19 1011.9
20260505001007 73 0 0.0 0.0 0.00 0.00 0.00 16 1012.2
20260504234039 73 0 0.0 0.0 0.00 0.00 0.00 15 1012.5
20260504231006 74 0 0.0 0.0 0.00 0.00 0.00 15 1012.5